Weather History for Branson, MO

Change the Weather History Date:

Wednesday, August 7, 2013

  Actual Average (KHRO) Record (KHRO)
Temperature  
Mean Temperature 76 °F 79 °F  
Max Temperature 84 °F 90 °F 109 °F (1934)
Min Temperature 69 °F 68 °F 48 °F (1957)
Degree Days  
Heating Degree Days 0 0  
Month to date heating degree days 0  
Since 1 June heating degree days 6  
Since 1 July heating degree days 0  
Cooling Degree Days 12 14  
Month to date cooling degree days 98  
Year to date cooling degree days 916  
Since 1 June cooling degree days 777  
Growing Degree Days 26 (Base 50)    
Moisture  
Dew Point 72 °F    
Average Humidity 86    
Maximum Humidity 100    
Minimum Humidity 65    
Precipitation  
Precipitation 0.37 in 0.13 in 1.43 in (2008)
Month to date precipitation 0.90  
Year to date precipitation 26.28  
Snow  
Snow 0.00 in 0.00 in - ()
Month to date snowfall 0.0  
Since 1 June snowfall 0.0  
Since 1 July snowfall 0.0  
Snow Depth -    
Sea Level Pressure  
Sea Level Pressure 29.94 in    
Wind  
Wind Speed 6 mph (SSE)    
Max Wind Speed 15 mph    
Max Gust Speed 18 mph    
Visibility 9 miles    
Events Rain , Thunderstorm    
T = Trace of Precipitation, MM = Missing Value Source: NWS Daily Summary

Daily Weather History Graph

Daily Weather History Graph

Search for Another Location

Airport:

Trip Planner

Search our weather history database for the weather conditions in past years. The results will help you decide how hot, cold, wet, or windy it might be!

Date:

Astronomy

Aug. 07, 2013 Rise Set
Actual Time 6:24 AM CDT 8:12 PM CDT
Civil Twilight 5:56 AM CDT 8:40 PM CDT
Nautical Twilight 5:22 AM CDT 9:14 PM CDT
Astronomical Twilight 4:46 AM CDT 9:50 PM CDT
Moon 7:10 AM CDT (8/7) 8:23 PM CDT (8/7)
Length of Visible Light 14h 44m
Length of Day
13h 48m
New Moon, 1% of the Moon is Illuminated
Aug 7
New Moon
Aug 14
First Quarter
Aug 20
Full
Aug 28
Last Quarter
Sep 5
New

Hourly Weather History & Observations

Time (CDT) Temp. Heat Index Dew Point Humidity Pressure Visibility Wind Dir Wind Speed Gust Speed Precip Events Conditions
12:15 AM 77.0 °F - 75.2 °F 94% 29.92 in 10.0 mi SE 5.8 mph - N/A   Clear
12:35 AM 77.0 °F - 75.2 °F 94% 29.92 in 10.0 mi SSE 4.6 mph - N/A   Clear
12:55 AM 77.0 °F - 75.2 °F 94% 29.91 in 10.0 mi SSE 4.6 mph - N/A   Clear
1:15 AM 77.0 °F - 75.2 °F 94% 29.90 in 10.0 mi South 5.8 mph - N/A   Clear
1:35 AM 77.0 °F - 73.4 °F 89% 29.88 in 10.0 mi South 5.8 mph - N/A   Clear
1:55 AM 77.0 °F - 73.4 °F 89% 29.88 in 10.0 mi South 4.6 mph - N/A   Clear
2:15 AM 78.8 °F - 73.4 °F 83% 29.87 in 10.0 mi South 5.8 mph - N/A   Clear
2:35 AM 78.8 °F - 71.6 °F 78% 29.86 in 10.0 mi South 5.8 mph - N/A   Clear
2:55 AM 78.8 °F - 71.6 °F 78% 29.86 in 10.0 mi South 3.5 mph - N/A   Clear
3:15 AM 78.8 °F - 71.6 °F 78% 29.87 in 10.0 mi SSW 3.5 mph - N/A   Clear
3:35 AM 77.0 °F - 71.6 °F 83% 29.87 in 10.0 mi South 3.5 mph - N/A   Clear
3:55 AM 78.8 °F - 69.8 °F 74% 29.88 in 10.0 mi Calm Calm - N/A   Partly Cloudy
4:15 AM 80.6 °F 83.9 °F 69.8 °F 70% 29.88 in 10.0 mi SW 4.6 mph - N/A   Scattered Clouds
4:35 AM 80.6 °F 83.9 °F 69.8 °F 70% 29.89 in 10.0 mi SSW 4.6 mph - N/A   Mostly Cloudy
4:55 AM 80.6 °F 83.2 °F 68.0 °F 65% 29.88 in 10.0 mi SW 4.6 mph - N/A   Partly Cloudy
5:15 AM 80.6 °F 83.2 °F 68.0 °F 65% 29.88 in 10.0 mi SSW 4.6 mph - N/A   Clear
5:35 AM 80.6 °F 83.2 °F 68.0 °F 65% 29.88 in 10.0 mi SW 5.8 mph - N/A   Clear
5:55 AM 77.0 °F - 69.8 °F 78% 29.90 in 10.0 mi WNW 5.8 mph - N/A   Mostly Cloudy
6:15 AM 77.0 °F - 71.6 °F 83% 29.92 in 10.0 mi West 3.5 mph - N/A   Mostly Cloudy
6:50 AM 75.2 °F - 71.6 °F 89% 29.95 in 10.0 mi North 6.9 mph - N/A   Overcast
7:45 AM 75.2 °F - 73.4 °F 94% 29.98 in 10.0 mi NE 5.8 mph - N/A   Overcast
8:45 AM 73.4 °F - 68.0 °F 83% 30.02 in 10.0 mi NE 11.5 mph 18.4 mph N/A Rain , Thunderstorm Light Thunderstorms and Rain
9:05 AM 71.6 °F - 68.0 °F 88% 30.04 in 1.2 mi ENE 8.1 mph - N/A Rain , Thunderstorm Light Thunderstorms and Rain
9:45 AM 69.8 °F - 68.0 °F 94% 30.02 in 3.0 mi East 8.1 mph - N/A Rain , Thunderstorm Light Thunderstorms and Rain
10:45 AM 69.8 °F - 69.8 °F 100% 30.02 in 3.0 mi South 6.9 mph - N/A Rain Light Rain
11:45 AM 71.6 °F - 69.8 °F 94% 30.00 in 5.0 mi SSE 15.0 mph - N/A Rain Light Rain
12:45 PM 75.2 °F - 73.4 °F 94% 29.96 in 10.0 mi South 15.0 mph - N/A   Mostly Cloudy
1:45 PM 80.6 °F 85.4 °F 73.4 °F 79% 29.95 in 10.0 mi South 8.1 mph - N/A   Mostly Cloudy
2:47 PM 82.4 °F 88.2 °F 73.4 °F 74% 29.94 in 10.0 mi SSW 4.6 mph - N/A   Mostly Cloudy
3:45 PM 84.2 °F 90.9 °F 73.4 °F 70% 29.93 in 10.0 mi NNW 8.1 mph - N/A   Mostly Cloudy
4:50 PM 78.8 °F - 75.2 °F 89% 29.92 in 10.0 mi NNE 6.9 mph - N/A   Mostly Cloudy
5:45 PM 78.8 °F - 75.2 °F 89% 29.93 in 10.0 mi NNE 8.1 mph - N/A   Mostly Cloudy
6:45 PM 77.0 °F - 75.2 °F 94% 29.93 in 10.0 mi NNE 5.8 mph - N/A   Scattered Clouds
7:50 PM 77.0 °F - 73.4 °F 89% 29.94 in 10.0 mi NE 4.6 mph - N/A   Overcast
8:10 PM 75.2 °F - 73.4 °F 94% 29.97 in 3.0 mi WNW 6.9 mph - N/A Rain , Thunderstorm Thunderstorms and Rain
8:45 PM 73.4 °F - 71.6 °F 94% 29.97 in 7.0 mi SSE 6.9 mph - N/A Rain , Thunderstorm Light Thunderstorms and Rain
8:55 PM 73.4 °F - 71.6 °F 94% 29.97 in - SSE 6.9 mph - 0.37 in Rain Light Rain
9:15 PM 73.4 °F - 71.6 °F 94% 29.97 in - Calm Calm - N/A   Unknown
9:35 PM 71.6 °F - 69.8 °F 94% 29.98 in - ESE 5.8 mph - N/A Thunderstorm Thunderstorm
9:55 PM 71.6 °F - 69.8 °F 94% 29.97 in 10.0 mi Calm Calm - N/A Thunderstorm Overcast
10:15 PM 71.6 °F - 69.8 °F 94% 29.96 in 10.0 mi East 6.9 mph - N/A   Mostly Cloudy
10:35 PM 71.6 °F - 68.0 °F 88% 29.97 in 10.0 mi South 3.5 mph - N/A Thunderstorm Mostly Cloudy
10:55 PM 71.6 °F - 68.0 °F 88% 29.97 in 10.0 mi Calm Calm - N/A   Mostly Cloudy
11:15 PM 71.6 °F - 69.8 °F 94% 29.97 in 10.0 mi SE 4.6 mph - N/A Thunderstorm Overcast
11:35 PM 71.6 °F - 71.6 °F 100% 29.97 in 10.0 mi SE 4.6 mph - N/A   Overcast
11:55 PM 73.4 °F - 71.6 °F 94% 29.96 in 10.0 mi SE 5.8 mph - N/A   Overcast